Regional Weather Roundup
Issued by NWS Cleveland, OH

Home | Current Version | Previous Version | Graphics & Text | Print | Product List | Glossary On
Versions: 1 2 3 4 5 6 7 8 9 10 11 12 13 14 15 16 17 18 19 20 21 22 23 24 25 26 27 28 29 30 31 32 33 34 35 36 37 38 39 40 41 42 43 44 45 46 47 48 49 50
000
ASUS41 KCLE 161700
RWRCLE
OHIO REGIONAL WEATHER ROUNDUP
NATIONAL WEATHER SERVICE WILMINGTON, OH
1200 PM EST SAT DEC 16 2017

NOTE: "FAIR" INDICATES FEW OR NO CLOUDS BELOW 12,000 FEET WITH NO
SIGNIFICANT WEATHER AND/OR OBSTRUCTIONS TO VISIBILITY.

OHZ001>008-015>018-024>027-034-035-043-044-161800-
   NORTHWEST OHIO

CITY           SKY/WX    TMP DP  RH WIND       PRES   REMARKS
DEFIANCE       FAIR      38  26  62 SW9       29.98R
FINDLAY        FAIR      39  27  62 SW14      29.98S
TOLEDO EXPRESS FAIR      37  29  72 SW8       29.97S
TOLEDO EXEC    CLOUDY    37  28  70 SW9       29.99S
LIMA           FAIR      38  29  70 SW17      29.98F
$$

OHZ009>014-019>023-028>033-038-089-161800-
   NORTHEAST OHIO

CITY           SKY/WX    TMP DP  RH WIND       PRES   REMARKS
CLE-HOPKINS    FLURRIES  38  27  64 SW16      30.02S
CLE-LAKEFRONT  CLOUDY    37  26  64 SW14      29.99S
CUY CO. ARPT   CLOUDY    39  28  65 SW14G23   29.99S
LORAIN-ELYRIA  CLOUDY    36  24  62 W15       30.00S
ASHTABULA      LGT SNOW  32  27  81 SW12      29.99R WCI  23
AKRON-CANTON   FLURRIES  35  25  66 SW14      30.00F WCI  26
WOOSTER        NOT AVBL
MANSFIELD      FAIR      38  26  62 SW15G24   29.99F
YOUNGSTOWN     CLOUDY    35  25  66 SW14      29.99S WCI  26
$$

OHZ042-051>053-060>062-070>072-077>081-161800-
  SOUTHWEST OHIO

CITY           SKY/WX    TMP DP  RH WIND       PRES   REMARKS
CINC-COVINGTON FAIR      44  29  55 SW18      30.07F
CINC-LUNKEN    FAIR      46  28  49 SW21G29   30.11F
HAMILTON       FAIR      46  28  49 SW9G21    30.09F
DAYTON         NOT AVBL
WRIGHT-PAT AFB FAIR      44  26  48 SW22      30.03F
DAYTON GENERAL FAIR      43  26  51 SW18G28   30.04F
WILMINGTON     FAIR      43  28  55 SW17G25   30.05F
$$

OHZ036-037-039>041-045>050-054>059-063>069-073>076-082>088-161800-
  CENTRAL AND SOUTHEAST OHIO

CITY           SKY/WX    TMP DP  RH WIND       PRES   REMARKS
COLUMBUS       FAIR      43  27  53 SW14G22   30.06F
OSU AIRPORT    FAIR      42  29  59 SW16      30.03F
BOLTON FIELD   SUNNY     43  27  52 SW14      30.06F
RICKENBACK AFB NOT AVBL
NEWARK         FAIR      43  27  53 SW14      30.05F
MARION         FAIR      38  27  64 SW17      30.01
LANCASTER      FAIR      42  27  55 SW15G22   30.07F
ZANESVILLE     FAIR      41  25  53 SW7G18    30.06F
NEW PHILLY     PTSUNNY   36  25  64 SW6       30.05F
$$



USA.gov is the U.S. government's official web portal to all federal, state and local government web resources and services.